Starlink 34801

operational
NORAD ID: 66075 Int'l Des: 2025-235 Owner: SPXS Country: US Constellation: starlink
NOTLE

Über Starlink 34801

Beschreibung wird geladen...

Live-Position

3D-Globus wird geladen...

Nächste Überflüge

Höhenverlauf

Altitude vs Time

uPlot chart will show altitude changes over time

Zweizeiliger Elementsatz

1 66075C 25235U 25293.08451389 .00538110 00000+0 79460-3 0 2933
2 66075 53.1589 188.7677 0005655 295.3677 296.0685 16.03670304 18
Epoch: 20. Okt. 2025 • Age: 19 hours

Aktueller Status

Höhe 265.7 km
Geschwindigkeit 7.75 km/s
Subsatellitenpunkt 34.41°N, 101.71°W
Startdatum 19. Okt. 2025
Alter 1 days
Typ internet

Technische Details

Klassifizierung Payload
Masse 575.00 kg
Trockenmasse 530.00 kg
Gesamtmasse 575.00 kg
Länge 0.30 m
Durchmesser 4.10 m
Spannweite 29.00 m
Form Box + pan
Hersteller SPXS
Bus-Typ Starlink V2MO
Phasenstatus In Orbit
Besitzer/Staat SPXS/US

Große Konstellationen

Loading constellations...